Regional Weather Roundup
Issued by NWS

Home | Current Version | Previous Version | Text Only | Print | Product List | Glossary Off
Versions: 1 2 3 4 5 6 7 8 9 10 11 12 13 14 15 16 17 18 19 20 21 22 23 24 25 26 27 28 29 30 31 32 33 34 35 36 37 38 39 40 41 42 43 44 45 46 47 48 49 50

000
ASUS43 KLOT 310006
RWRIL

ILLINOIS REGIONAL WEATHER ROUNDUP
NATIONAL WEATHER SERVICE CHICAGO/ROMEOVILLE IL
700 PM CDT THU OCT 30 2014

NOTE: "FAIR" INDICATES FEW OR NO CLOUDS BELOW 12,000 FEET WITH NO
SIGNIFICANT WEATHER AND/OR OBSTRUCTIONS TO VISIBILITY.

* THESE STATIONS ARE NOT UNDER NWS QUALITY CONTROL. THEY ALSO MAY NOT
  REPORT WEATHER SUCH AS PRECIPITATION OR FOG.

ILZ001-002-007-009-015-016-024-310100-
NORTHWEST ILLINOIS

CITY           SKY/WX    TMP DP  RH WIND       PRES   REMARKS
MOLINE         CLOUDY    47  39  74 E5        30.07S
6HR MIN TEMP:  47; 6HR MAX TEMP:  52; 6HR PCP: TRACE;

STERLING*      MOCLDY    46  36  66 CALM      30.08S
SAVANNA*       CLOUDY    47  39  73 CALM      30.08R
$$

ILZ003-004-008-010-011-017-018-310100-
NORTH CENTRAL ILLINOIS

CITY           SKY/WX    TMP DP  RH WIND       PRES   REMARKS
ROCKFORD       CLOUDY    48  36  63 W5        30.09R
6HR MIN TEMP:  48; 6HR MAX TEMP:  53;

FREEPORT*      CLOUDY    47  35  65 W3        30.09R
ROCHELLE*      CLOUDY    46  37  70 CALM      30.07F
DE KALB*       CLOUDY    46  35  67 CALM      30.07S
PERU*          CLOUDY    48  37  66 CALM      30.09R
$$

ILZ005-006-012>014-019>023-310100-
NORTHEAST ILLINOIS

CITY           SKY/WX    TMP DP  RH WIND       PRES   REMARKS
CHICAGO-OHARE  CLOUDY    48  36  63 W5        30.06S
6HR MIN TEMP:  48; 6HR MAX TEMP:  51;

CHICAGO-MIDWAY CLOUDY    50  36  58 W6        30.06F
6HR MIN TEMP:  50; 6HR MAX TEMP:  53;

AURORA         CLOUDY    47  35  63 SW5       30.07S
6HR MIN TEMP:  46; 6HR MAX TEMP:  51;

LANSING*       CLOUDY    47  36  66 CALM      30.07S
JOLIET*        CLOUDY    46  37  69 CALM      30.07F
WAUKEGAN       CLOUDY    48  34  58 CALM      30.05S
6HR MIN TEMP:  48; 6HR MAX TEMP:  52;

DUPAGE AIRPORT CLOUDY    48  36  63 SW5       30.06S
6HR MIN TEMP:  48; 6HR MAX TEMP:  53;

KANKAKEE*      MOCLDY    46  40  82 CALM      30.08R
WHEELING       CLOUDY    50  35  56 W5        30.08S
6HR MIN TEMP:  50; 6HR MAX TEMP:  53;

MORRIS*        CLOUDY    46  38  75 CALM      30.06F
ROMEOVILLE*    CLOUDY    46  36  67 W3        30.07S
NORTHERLY ISL    N/A     50  35  56 W6          N/A
$$

LMZ740>746-310100-
SOUTHERN LAKE MICHIGAN

STATION/POSITION SKY/WX   TEMP    WIND        PRES    VSBY  WAVE
                          AIR SEA DIR/SP/G                  HT/PER
                          (F)     (DEG/KT/KT) (MB)    (MI)  (FT/S)
SOUTHERN BUOY              50 53  240/  8/ 10 1017.8F         1/ 4
WAUKEGAN HARBOR            50     280/  6/  8   N/A
HARRISON CRIB              50     250/  9/ 12   N/A
BURNHAM HARBOR             50     270/  5/  9   N/A
CALUMET HARBOR             49     230/  3/  4 1016.9S
MICHIGAN CITY              49     200/  9/ 11   N/A
$$

ILZ025>027-034>036-040-047-049-050-058-095>099-310100-
WEST-CENTRAL ILLINOIS

CITY           SKY/WX    TMP DP  RH WIND       PRES   REMARKS
QUINCY         MOCLDY    48  41  76 NE6       30.03S
GALESBURG*     CLOUDY    45  40  85 CALM      30.07S
MACOMB*        CLOUDY    45  40  82 NE7       30.08R
JACKSONVILLE*  CLOUDY    51  46  82 CALM      30.05S
PITTSFIELD*    CLOUDY    49  43  80 NE3       30.05R
$$

ILZ028>032-037-038-041>044-048-051>054-059>061-310100-
CENTRAL ILLINOIS

CITY           SKY/WX    TMP DP  RH WIND       PRES   REMARKS
PONTIAC        MOCLDY    46  43  88 CALM      30.08S
BLOOMINGTON    LGT RAIN  46  44  93 S6        30.07F FOG
DECATUR        LGT RAIN  48  45  89 NE6       30.08R
PEORIA         CLOUDY    47  43  86 NE3       30.08R
6HR MIN TEMP:  47; 6HR MAX TEMP:  50; 6HR PCP:  0.07;

LACON*         CLOUDY    43  41  91 CALM      30.08R
LINCOLN*       LGT RAIN  48  44  86 NE5       30.07R
SPRINGFIELD    CLOUDY    51  43  74 E7        30.06S
6HR MIN TEMP:  51; 6HR MAX TEMP:  54; 6HR PCP: TRACE;

TAYLORVILLE    CLOUDY    48  43  81 NE5       30.05S
$$

ILZ033-039-045-046-055>057-062-063-310100-
EAST-CENTRAL ILLINOIS

CITY           SKY/WX    TMP DP  RH WIND       PRES   REMARKS
CHAMPAIGN      CLOUDY    48  45  89 N5        30.07R
DANVILLE*      CLOUDY    48  39  71 NE3       30.03F
RANTOUL*       LGT RAIN  50  42  74 W7        30.07R
MATTOON        CLOUDY    49  42  77 CALM      30.05R
PARIS*         DRIZZLE   48  41  75 CALM      30.06F
$$

ILZ079-100>102-310100-
SOUTHWEST ILLINOIS

CITY           SKY/WX    TMP DP  RH WIND       PRES   REMARKS
ALTON          CLOUDY    52  45  76 E6        30.03S
BELLEVILLE     CLOUDY    53  47  79 W3        30.03R
CAHOKIA*       LGT RAIN  54  46  74 SW3       30.04R
SPARTA*        CLOUDY    53  46  77 S6        30.03F
$$

ILZ064>066-069>071-074>076-080>082-084>086-088>090-092>094-310100-
SOUTH-CENTRAL ILLINOIS

CITY           SKY/WX    TMP DP  RH WIND       PRES   REMARKS
CARBONDALE     CLOUDY    55  44  66 W6        30.05R
6HR MIN TEMP:  55; 6HR MAX TEMP:  63; 6HR PCP: TRACE;

CAIRO*         RAIN      59  46  63 W3        30.05S
EFFINGHAM*     CLOUDY    51  42  69 CALM      30.05S
MARION         CLOUDY    57  43  58 CALM      30.04F
MT. VERNON     CLOUDY    54  41  62 CALM      30.05S
CENTRALIA*     LGT RAIN  53  42  65 CALM      30.04S
SALEM*         LGT RAIN  52  49  90 N5        30.05R
METROPOLIS*    CLOUDY    56  46  67 CALM      30.05R
$$

ILZ067-068-072-073-078-083-087-091-310100-
SOUTHEAST ILLINOIS

CITY           SKY/WX    TMP DP  RH WIND       PRES   REMARKS
LAWRENCEVILLE  CLOUDY    51  31  46 E6        30.05F
FLORA*         LGT RAIN  52  43  72 CALM      30.06R
FAIRFIELD*     CLOUDY    53  41  63 CALM      30.04R
HARRISBURG*    CLOUDY    55  44  68 CALM      30.06S
ROBINSON*      DRIZZLE   52  44  75 CALM      30.06F
CARMI*         CLOUDY    54  43  67 CALM      30.05S HAZE
$$

ABBREVIATIONS USED IN REMARKS
   TC - TEMPERATURE IN CELSIUS
  WCI - WIND CHILL INDEX
   HX - HEAT INDEX
  VSB - VISIBILITY
$$




USA.gov is the U.S. government's official web portal to all federal, state and local government web resources and services.